Weather History for Dumas, TX

Change the Weather History Date:

Sunday, August 17, 2014

  Actual Average (KBGD) Record (KBGD)
Temperature  
Mean Temperature 80 °F 80 °F  
Max Temperature 97 °F 92 °F 106 °F (1969)
Min Temperature 63 °F 68 °F 57 °F (1950)
Degree Days  
Heating Degree Days 0 0  
Month to date heating degree days 0  
Since 1 June heating degree days 3  
Since 1 July heating degree days 0  
Cooling Degree Days 15 15  
Month to date cooling degree days 278  
Year to date cooling degree days 1359  
Since 1 June cooling degree days 1162  
Growing Degree Days 30 (Base 50)    
Moisture  
Dew Point 53 °F    
Average Humidity 45    
Maximum Humidity 75    
Minimum Humidity 18    
Precipitation  
Precipitation 0.00 in 0.12 in 2.30 in (1992)
Month to date precipitation 1.59  
Year to date precipitation 14.43  
Snow  
Snow 0.00 in - 0.00 in (2013)
Month to date snowfall  
Since 1 June snowfall  
Since 1 July snowfall  
Snow Depth -    
Sea Level Pressure  
Sea Level Pressure 30.08 in    
Wind  
Wind Speed 7 mph (SSW)    
Max Wind Speed 12 mph    
Max Gust Speed 17 mph    
Visibility 10 miles    
Events      
T = Trace of Precipitation, MM = Missing Value Source: NWS Daily Summary

Daily Weather History Graph

Daily Weather History Graph

Search for Another Location

Airport:

Trip Planner

Search our weather history database for the weather conditions in past years. The results will help you decide how hot, cold, wet, or windy it might be!

Date:

Astronomy

Aug. 17, 2014 Rise Set
Actual Time 7:08 AM CDT 8:35 PM CDT
Civil Twilight 6:41 AM CDT 9:02 PM CDT
Nautical Twilight 6:08 AM CDT 9:34 PM CDT
Astronomical Twilight 5:34 AM CDT 10:08 PM CDT
Moon 12:36 AM CDT (8/17) 2:40 PM CDT (8/17)
Length of Visible Light 14h 20m
Length of Day
13h 26m
Waning Gibbous, 48% of the Moon is Illuminated
Aug 17
Waning Gibbous
Aug 25
New
Sep 2
First Quarter
Sep 8
Full
Sep 15
Last Quarter

Hourly Weather History & Observations

Time (CDT) Temp. Heat Index Dew Point Humidity Pressure Visibility Wind Dir Wind Speed Gust Speed Precip Events Conditions
12:15 AM 70.2 °F - 58.1 °F 65% 30.09 in 10.0 mi WSW 8.1 mph - N/A   Clear
12:55 AM 69.6 °F - 57.6 °F 65% 30.10 in 10.0 mi WSW 8.1 mph - N/A   Clear
1:15 AM 69.1 °F - 57.4 °F 66% 30.10 in 10.0 mi WSW 5.8 mph - N/A   Clear
1:35 AM 67.3 °F - 55.9 °F 67% 30.09 in 10.0 mi West 4.6 mph - N/A   Clear
1:55 AM 65.3 °F - 56.5 °F 73% 30.09 in 10.0 mi West 5.8 mph - N/A   Clear
2:15 AM 64.6 °F - 56.3 °F 74% 30.09 in 10.0 mi West 5.8 mph - N/A   Clear
2:35 AM 64.4 °F - 56.3 °F 75% 30.08 in 10.0 mi West 5.8 mph - N/A   Clear
2:55 AM 65.3 °F - 56.7 °F 74% 30.08 in 10.0 mi West 6.9 mph - N/A   Clear
3:15 AM 65.3 °F - 56.3 °F 73% 30.08 in 10.0 mi West 8.1 mph - N/A   Clear
3:35 AM 64.6 °F - 56.3 °F 74% 30.08 in 10.0 mi WNW 8.1 mph - N/A   Clear
3:55 AM 64.4 °F - 56.3 °F 75% 30.08 in 10.0 mi WNW 6.9 mph - N/A   Clear
4:15 AM 64.0 °F - 55.9 °F 75% 30.08 in 10.0 mi West 9.2 mph - N/A   Clear
4:35 AM 64.4 °F - 55.6 °F 73% 30.09 in 10.0 mi West 8.1 mph - N/A   Clear
4:55 AM 64.2 °F - 55.4 °F 73% 30.08 in 10.0 mi WNW 10.4 mph - N/A   Clear
5:15 AM 65.3 °F - 55.4 °F 70% 30.08 in 10.0 mi West 8.1 mph - N/A   Clear
5:35 AM 64.4 °F - 55.0 °F 72% 30.08 in 10.0 mi WNW 6.9 mph - N/A   Clear
5:55 AM 64.4 °F - 55.4 °F 73% 30.08 in 10.0 mi West 9.2 mph - N/A   Clear
6:15 AM 64.6 °F - 55.0 °F 71% 30.09 in 10.0 mi West 9.2 mph - N/A   Clear
6:35 AM 64.4 °F - 55.0 °F 72% 30.09 in 10.0 mi West 8.1 mph - N/A   Clear
6:55 AM 63.9 °F - 54.7 °F 72% 30.09 in 10.0 mi West 8.1 mph - N/A   Clear
7:15 AM 63.9 °F - 54.7 °F 72% 30.10 in 10.0 mi West 8.1 mph - N/A   Clear
7:35 AM 64.2 °F - 54.9 °F 72% 30.11 in 10.0 mi WNW 5.8 mph - N/A   Clear
7:55 AM 65.5 °F - 55.4 °F 70% 30.10 in 10.0 mi WNW 6.9 mph - N/A   Clear
8:15 AM 68.2 °F - 56.1 °F 65% 30.10 in 10.0 mi WNW 6.9 mph - N/A   Clear
8:35 AM 70.9 °F - 56.5 °F 60% 30.11 in 10.0 mi WNW 5.8 mph - N/A   Clear
8:55 AM 74.1 °F - 56.3 °F 54% 30.11 in 10.0 mi WNW 4.6 mph - N/A   Clear
9:15 AM 77.7 °F - 56.3 °F 48% 30.11 in 10.0 mi NNW 4.6 mph - N/A   Clear
9:35 AM 80.2 °F 80.4 °F 56.5 °F 44% 30.12 in 10.0 mi NW 3.5 mph - N/A   Clear
9:55 AM 83.1 °F 82.6 °F 57.0 °F 41% 30.12 in 10.0 mi North 3.5 mph - N/A   Clear
10:15 AM 85.3 °F 84.3 °F 57.0 °F 38% 30.12 in 10.0 mi East 4.6 mph - N/A   Clear
10:35 AM 85.6 °F 84.3 °F 55.6 °F 36% 30.12 in 10.0 mi Calm Calm - N/A   Clear
11:15 AM 87.8 °F 85.7 °F 54.0 °F 31% 30.13 in 10.0 mi ESE 4.6 mph - N/A   Clear
11:35 AM 89.1 °F 86.7 °F 53.2 °F 29% 30.13 in 10.0 mi SE 5.8 mph - N/A   Clear
11:55 AM 90.3 °F 88.1 °F 53.6 °F 29% 30.12 in 10.0 mi SSE 5.8 mph - N/A   Clear
12:15 PM 90.9 °F 88.5 °F 53.4 °F 28% 30.12 in 10.0 mi ESE 3.5 mph - N/A   Clear
12:35 PM 91.6 °F 89.3 °F 54.1 °F 28% 30.12 in 10.0 mi SE 8.1 mph - N/A   Clear
12:55 PM 92.3 °F 90.2 °F 55.0 °F 28% 30.12 in 10.0 mi South 5.8 mph - N/A   Clear
1:15 PM 93.2 °F - 52.9 °F 25% 30.11 in 10.0 mi ESE 4.6 mph - N/A   Clear
1:35 PM 94.1 °F - 49.8 °F 22% 30.11 in 10.0 mi South 6.9 mph - N/A   Clear
1:55 PM 95.2 °F - 46.6 °F 19% 30.11 in 10.0 mi SE 6.9 mph - N/A   Clear
2:15 PM 95.7 °F - 46.2 °F 18% 30.10 in 10.0 mi South 9.2 mph - N/A   Clear
2:35 PM 96.4 °F - 49.3 °F 20% 30.10 in 10.0 mi SE 9.2 mph - N/A   Clear
2:55 PM 96.3 °F - 48.9 °F 20% 30.09 in 10.0 mi SSE 6.9 mph - N/A   Clear
3:15 PM 96.8 °F - 49.5 °F 20% 30.08 in 10.0 mi SSE 4.6 mph - N/A   Clear
3:35 PM 96.8 °F - 50.0 °F 20% 30.08 in 10.0 mi SE 6.9 mph - N/A   Clear
3:55 PM 96.4 °F - 48.6 °F 20% 30.07 in 10.0 mi Calm Calm - N/A   Clear
4:15 PM 97.0 °F - 47.7 °F 19% 30.07 in 10.0 mi SE 11.5 mph 17.3 mph N/A   Clear
4:35 PM 96.6 °F - 50.2 °F 21% 30.06 in 10.0 mi SE 11.5 mph 16.1 mph N/A   Clear
4:55 PM 95.5 °F - 50.4 °F 22% 30.06 in 10.0 mi East 8.1 mph 16.1 mph N/A   Clear
5:15 PM 96.1 °F - 48.9 °F 20% 30.05 in 10.0 mi SE 8.1 mph - N/A   Clear
5:35 PM 93.4 °F - 48.7 °F 22% 30.05 in 10.0 mi SSE 8.1 mph - N/A   Clear
5:55 PM 94.1 °F - 48.6 °F 21% 30.04 in 10.0 mi South 8.1 mph - N/A   Clear
6:15 PM 94.5 °F - 45.9 °F 19% 30.03 in 10.0 mi SE 5.8 mph - N/A   Clear
6:35 PM 94.8 °F - 46.4 °F 19% 30.03 in 10.0 mi SE 6.9 mph - N/A   Clear
6:55 PM 94.6 °F - 47.5 °F 20% 30.02 in 10.0 mi SE 8.1 mph - N/A   Clear
7:15 PM 92.3 °F - 47.5 °F 21% 30.02 in 10.0 mi SE 6.9 mph - N/A   Clear
7:35 PM 91.2 °F - 46.4 °F 21% 30.02 in 10.0 mi ESE 8.1 mph - N/A   Clear
7:55 PM 88.3 °F - 47.7 °F 24% 30.02 in 10.0 mi SE 8.1 mph - N/A   Clear
8:15 PM 85.3 °F - 47.8 °F 27% 30.02 in 10.0 mi SE 8.1 mph - N/A   Clear
8:35 PM 81.7 °F - 48.4 °F 31% 30.03 in 10.0 mi SE 6.9 mph - N/A   Clear
8:55 PM 78.4 °F - 48.7 °F 35% 30.03 in 10.0 mi SSE 8.1 mph - N/A   Clear
9:15 PM 77.0 °F - 50.0 °F 39% 30.03 in 10.0 mi SSE 8.1 mph - N/A   Clear
9:35 PM 75.6 °F - 49.5 °F 40% 30.05 in 10.0 mi South 6.9 mph - N/A   Clear
9:55 PM 74.3 °F - 50.9 °F 44% 30.05 in 10.0 mi SSE 8.1 mph - N/A   Clear
10:15 PM 73.8 °F - 51.3 °F 45% 30.06 in 10.0 mi South 8.1 mph - N/A   Clear
10:35 PM 72.7 °F - 52.9 °F 50% 30.07 in 10.0 mi South 5.8 mph - N/A   Clear
10:55 PM 71.8 °F - 52.2 °F 50% 30.07 in 10.0 mi South 8.1 mph - N/A   Clear
11:15 PM 70.9 °F - 52.9 °F 53% 30.07 in 10.0 mi South 8.1 mph - N/A   Clear
11:35 PM 70.9 °F - 52.7 °F 53% 30.07 in 10.0 mi South 8.1 mph - N/A   Clear
11:55 PM 70.7 °F - 52.5 °F 52% 30.07 in 10.0 mi South 6.9 mph - N/A   Clear